RH
8 9 8 7 9 10 10 10 11 14 14 14 14 11 9 10 11 8 9 12 10 18 24 26 25 23 27 33 37 40 43 43 42 42 45 47 46 48 51 49 46 42 41 40 40 41 40 39 41 46 50 52 53 50 47 44 42 40 37 35 35 32 29 27 25 24 22 22 22 24 24 24 25 29 37 36 30 28 32 33 28 26 26 26 28 27 28 26 21 21 23 24 26 28 30 30 30
9 9 8 8 10 11 10 11 12 15 13 11 11 11 9 10 11 10 12 13 13 21 27 29 29 27 30 34 38 38 42 48 46 46 49 50 50 52 52 48 44 41 40 40 41 42 43 41 41 46 49 50 52 52 48 44 41 38 36 36 37 34 31 28 26 24 22 23 23 25 26 26 26 26 33 36 32 33 39 39 33 28 28 27 28 28 27 25 23 23 25 26 28 31 32 33 33
9 8 9 10 11 11 11 11 13 15 13 10 9 9 9 9 10 11 14 14 16 23 28 31 33 32 32 37 40 38 44 50 48 49 51 49 50 49 47 44 40 39 38 37 40 42 43 42 41 46 49 49 52 52 47 43 40 37 36 38 38 36 32 28 26 24 23 25 25 26 28 31 32 28 29 31 32 36 41 42 37 33 30 28 29 29 29 26 25 26 27 30 31 33 34 35 36
8 9 10 12 11 12 14 14 15 15 13 10 8 9 10 10 10 13 15 14 16 22 28 32 34 34 35 40 41 40 45 48 49 50 50 47 47 47 43 40 38 38 37 37 39 40 43 43 43 46 48 48 50 51 46 43 40 37 38 39 40 37 31 27 26 24 24 27 28 27 30 35 37 32 29 30 33 37 42 44 41 37 35 31 29 30 30 28 27 28 31 32 33 33 35 36 36
8 10 12 13 11 12 14 15 17 13 10 10 9 12 14 14 14 16 17 16 20 24 30 35 36 35 36 39 40 41 44 45 47 48 49 48 45 44 40 37 37 38 38 37 38 40 43 44 46 48 48 49 50 50 47 44 40 38 39 40 40 36 30 25 25 25 25 28 31 32 34 38 37 33 31 33 33 35 39 43 41 39 37 34 31 32 32 30 29 30 32 34 34 35 35 36 37
9 12 13 13 12 12 14 15 16 13 9 10 11 13 16 18 18 20 18 18 24 30 34 38 38 38 41 43 41 42 43 43 46 48 49 50 47 42 38 37 38 38 38 37 38 40 43 47 50 50 49 51 52 52 48 44 40 40 41 41 41 36 29 25 26 27 27 28 31 36 39 40 38 36 36 38 38 36 37 39 38 37 37 36 33 34 34 32 31 32 34 36 37 37 37 37 37
11 13 13 13 13 13 16 16 15 14 11 11 13 13 16 20 21 21 19 18 24 33 39 41 40 41 44 45 45 46 44 42 44 47 48 49 47 42 39 38 38 39 39 39 39 41 46 51 52 52 52 54 54 52 48 43 42 42 43 42 41 36 29 27 27 28 31 32 33 36 39 41 40 40 40 41 41 39 39 39 37 36 37 38 36 37 36 33 32 34 36 38 39 39 38 37 37
12 12 12 13 13 12 15 16 13 13 12 12 14 15 16 19 21 22 20 18 19 30 41 45 42 42 44 42 46 49 44 42 44 46 48 48 46 42 40 39 39 39 40 41 39 43 52 56 56 55 56 56 54 50 47 45 44 44 44 44 42 36 30 30 30 31 35 36 36 38 40 41 41 40 39 40 40 38 38 38 38 38 39 39 38 39 39 36 34 35 37 39 40 40 38 37 37
12 11 10 12 13 12 14 13 11 11 11 11 13 15 16 17 19 20 20 20 18 27 40 43 40 41 44 43 45 46 42 43 45 47 47 46 45 42 40 39 39 39 41 42 41 48 56 58 58 58 57 55 52 48 48 47 47 46 45 45 42 36 33 35 34 35 38 40 41 42 42 40 39 37 37 37 37 35 35 37 40 41 41 40 40 40 40 39 36 35 37 39 40 40 39 38 39
11 10 10 13 13 13 13 11 11 10 10 10 11 14 15 15 17 17 17 18 19 28 36 37 39 40 42 42 43 42 40 42 43 46 46 44 43 40 38 38 40 42 43 45 47 52 57 58 57 56 55 52 50 48 48 48 48 46 46 45 39 35 37 39 38 40 42 44 45 45 43 41 38 37 36 37 39 39 38 40 44 45 44 43 41 40 41 41 38 35 36 39 40 40 40 41 42
11 10 10 14 15 14 13 12 11 10 10 10 13 14 14 14 16 16 15 14 19 30 34 34 38 39 37 39 42 40 41 43 43 46 45 43 44 42 42 43 45 48 50 50 51 53 54 55 54 52 52 50 49 48 46 47 46 44 44 41 35 35 40 41 42 44 46 48 50 50 48 45 42 41 42 43 46 47 45 43 46 48 48 47 44 41 41 41 40 37 37 39 40 41 42 43 43
11 12 13 17 17 14 13 13 12 11 11 12 14 14 14 13 14 16 14 13 21 32 33 33 37 36 36 39 42 42 42 44 44 46 46 46 47 48 49 50 51 53 56 55 53 52 51 51 50 50 50 48 46 45 44 44 43 42 41 36 34 39 43 44 46 49 51 53 55 57 57 53 50 49 49 52 52 50 47 45 45 48 49 50 48 43 42 42 41 39 39 39 40 42 44 45 45
12 13 13 16 17 15 14 13 13 14 14 13 14 13 13 13 14 15 14 17 24 30 31 31 34 35 37 40 43 45 44 45 44 44 45 46 48 50 51 53 54 53 56 57 53 50 49 49 48 47 47 45 43 43 42 41 40 41 40 37 40 47 50 51 53 55 57 57 59 62 63 61 58 55 55 58 58 53 49 48 47 47 49 50 50 47 44 44 44 42 41 41 42 44 45 47 46
11 12 12 14 15 15 12 12 14 15 14 14 14 13 14 12 14 14 17 26 27 27 31 33 33 35 39 40 44 45 43 44 41 42 43 44 47 49 50 53 53 52 55 56 53 51 50 50 49 48 46 44 42 41 41 40 40 42 41 43 49 55 57 59 60 61 61 60 62 64 65 65 63 62 62 63 61 57 54 55 55 52 50 50 49 49 48 47 47 45 43 44 44 46 48 49 47
11 11 13 14 14 13 12 13 14 14 15 15 14 15 15 15 18 19 22 31 31 29 33 35 32 35 41 40 42 44 41 41 39 39 40 42 45 47 49 54 54 54 57 55 53 53 51 50 50 48 45 42 41 40 42 44 47 47 46 51 58 62 64 65 64 63 62 63 66 67 68 69 70 71 71 68 64 60 59 59 60 57 54 52 51 52 51 50 50 48 44 43 44 48 50 49 47
11 12 14 14 14 14 13 14 15 15 16 16 15 16 17 18 24 28 28 29 32 32 32 36 33 33 40 40 39 41 41 41 38 38 39 40 43 43 46 52 54 54 56 55 54 53 52 51 49 45 41 39 39 42 47 51 54 52 51 57 64 67 68 66 65 63 64 66 69 70 71 72 74 76 76 74 68 64 63 60 60 59 57 57 58 58 57 55 52 49 44 40 43 49 51 49 48
13 13 15 14 13 13 14 16 15 16 16 15 16 17 19 22 28 33 32 32 35 34 32 37 36 34 40 42 40 42 44 44 41 40 40 40 39 39 44 51 53 54 55 54 53 53 53 49 46 43 39 38 43 48 53 56 55 53 56 62 65 66 66 65 65 65 65 67 70 71 72 72 73 75 76 73 67 65 64 62 60 61 60 60 62 63 62 60 55 49 44 41 42 46 47 47 48
14 15 15 14 13 12 14 16 16 17 17 16 17 18 20 23 28 34 35 37 39 37 38 40 40 41 44 43 43 44 45 46 45 43 41 41 39 39 46 53 57 59 56 53 52 51 50 47 45 43 41 43 49 53 55 56 55 56 59 63 65 67 68 68 67 65 66 68 70 69 68 68 70 71 72 69 65 64 64 63 63 63 62 62 63 65 66 62 57 52 48 45 42 41 42 45 46
14 14 14 13 13 12 13 17 17 18 20 19 19 19 20 20 23 31 38 44 45 45 46 46 46 47 47 45 45 46 46 47 48 46 45 46 44 44 50 55 61 63 57 53 52 49 47 46 44 42 43 47 51 53 54 54 56 59 61 63 65 67 68 67 65 65 66 67 67 66 65 66 66 67 68 66 63 62 63 63 64 64 63 63 64 67 67 62 58 56 52 47 43 40 41 43 44
14 14 13 12 12 11 13 18 18 20 23 21 20 20 21 18 18 30 43 48 50 52 52 49 51 51 49 49 47 47 47 47 46 47 49 51 49 47 50 55 61 62 56 53 52 50 48 47 43 41 44 49 52 53 53 53 55 57 57 59 61 63 66 66 65 65 66 66 66 66 66 65 65 66 66 64 62 63 63 64 64 65 65 65 64 66 65 60 57 57 54 50 46 42 41 43 44
14 14 14 12 11 11 13 17 19 22 23 21 21 21 21 18 17 31 43 45 48 52 51 46 47 51 50 49 47 47 49 49 47 49 50 52 52 52 55 58 61 60 57 55 52 51 51 48 45 43 45 48 50 52 51 51 52 54 56 57 59 62 65 64 63 64 65 66 67 69 69 68 67 67 66 64 66 67 67 66 65 66 65 64 63 64 62 58 57 59 57 54 52 48 46 47 47
15 14 13 12 11 11 12 15 19 22 22 21 22 21 21 18 21 32 36 38 41 43 43 41 41 46 46 46 46 47 51 52 52 54 55 56 57 60 61 62 61 59 57 56 55 54 51 47 45 44 46 48 50 52 50 51 54 57 58 58 60 63 63 61 62 64 66 68 70 73 73 73 71 70 71 72 74 73 71 69 68 67 65 65 66 64 61 58 58 60 59 59 58 56 56 53 51
17 16 14 13 12 11 12 14 18 21 22 21 22 22 20 18 21 28 30 31 34 34 36 41 44 46 44 45 48 49 52 53 54 55 58 61 65 68 66 63 63 60 58 56 55 53 49 46 45 43 44 48 53 54 54 55 58 58 57 58 60 62 61 60 63 67 69 72 73 75 77 76 74 75 77 78 77 76 74 73 73 71 68 70 71 68 63 60 59 60 61 63 64 64 64 61 58
18 17 15 14 14 13 13 15 18 21 23 22 21 21 21 20 18 24 27 26 29 33 35 41 47 50 49 49 51 50 50 51 53 56 61 68 73 73 70 66 65 62 58 56 53 50 49 50 50 48 47 50 54 55 55 57 58 57 57 60 62 62 61 62 67 70 71 72 73 75 76 75 75 79 79 78 77 76 77 76 76 74 71 72 71 69 66 64 63 63 64 66 67 68 67 65 64
17 16 15 15 15 14 14 17 20 21 21 21 22 22 21 20 19 24 28 27 29 33 35 40 46 50 51 50 48 47 47 48 53 57 64 71 73 74 72 67 64 61 58 56 52 47 46 48 50 51 51 51 53 53 54 56 57 58 59 62 64 62 61 64 69 71 70 71 72 73 73 75 78 79 78 77 76 76 76 77 75 72 70 68 67 66 65 64 65 66 67 68 68 68 68 67 66
18 16 17 16 15 15 15 17 20 20 20 21 22 22 21 19 20 27 33 33 34 34 36 40 45 48 49 47 46 46 46 46 51 59 69 74 70 72 73 67 63 61 59 55 49 44 43 47 53 55 53 52 53 53 53 55 57 59 61 65 65 62 62 66 69 68 67 68 69 71 72 73 74 74 74 74 74 74 74 73 71 67 65 63 63 63 61 61 63 65 66 66 66 67 68 69 68
18 18 18 16 15 14 14 15 19 20 20 21 22 22 22 19 19 25 33 37 36 36 38 40 44 48 47 46 47 46 45 47 52 59 71 79 73 72 73 66 62 60 58 53 48 45 46 49 54 56 54 51 51 52 54 56 59 62 65 67 66 63 63 64 66 66 66 67 69 70 69 67 67 68 70 71 70 69 68 67 65 62 60 60 60 60 58 57 59 62 63 62 63 66 68 69 68
18 18 17 16 16 15 15 14 17 20 21 22 23 22 21 20 18 21 31 37 35 35 40 42 44 47 47 47 48 47 46 48 52 55 67 79 76 73 70 65 62 59 58 54 49 49 48 48 51 53 53 51 50 53 58 60 61 65 67 67 65 63 62 64 66 66 67 69 69 68 66 64 63 62 62 63 63 62 61 60 60 57 55 55 56 55 54 54 55 58 60 60 61 65 68 69 68
18 19 18 17 17 15 15 14 14 17 20 22 23 23 21 20 18 19 29 38 37 36 40 42 44 46 46 47 47 47 47 48 50 54 66 77 77 72 68 66 63 59 59 56 49 49 50 50 52 51 51 51 52 54 59 61 63 65 66 65 63 62 62 65 67 67 67 68 67 66 64 61 58 55 53 53 54 54 55 54 54 51 51 52 53 53 54 55 54 56 60 61 62 67 70 69 70
19 19 18 17 17 15 14 13 14 14 17 21 24 24 23 22 19 20 31 38 39 39 38 38 42 45 46 46 45 45 46 47 50 57 66 74 75 72 69 65 61 59 59 55 49 50 51 49 49 49 50 53 54 54 57 61 64 65 64 63 62 61 61 63 65 64 64 64 62 61 59 55 52 50 47 47 47 49 51 51 50 50 51 52 52 53 54 55 55 55 60 63 63 67 71 71 72
19 18 18 18 17 16 15 14 15 14 15 18 23 26 23 22 20 21 33 38 37 38 37 36 40 44 45 45 44 43 43 46 53 61 64 67 67 68 67 63 60 57 55 53 51 52 50 47 47 47 50 55 54 55 59 61 63 62 60 61 61 60 59 59 60 60 60 57 55 55 53 51 48 45 43 44 46 48 51 51 52 53 54 53 53 54 53 54 57 58 60 63 64 68 72 73 74
21 19 20 22 18 16 16 15 15 14 15 16 21 26 24 22 20 21 33 38 36 37 37 35 38 42 43 43 43 41 42 47 54 61 64 64 62 63 63 60 59 57 55 55 53 51 48 47 48 47 51 55 54 58 61 61 60 57 55 57 59 58 56 56 56 57 56 53 51 51 49 46 43 41 41 42 45 49 52 53 54 54 53 52 51 52 52 54 57 60 61 62 65 69 73 74 73
24 21 21 22 19 18 17 15 16 15 15 15 17 23 24 24 22 22 32 39 37 37 36 35 36 39 40 41 42 41 44 50 54 59 62 61 59 61 64 64 64 63 63 59 54 50 46 47 49 50 56 55 55 60 61 60 58 54 53 55 55 55 54 54 55 56 55 51 47 44 42 40 40 40 41 43 46 49 52 55 55 53 52 52 52 52 52 53 55 59 62 63 66 70 71 72 72
25 23 22 23 21 19 18 16 16 16 16 17 17 19 21 23 23 24 32 39 38 37 35 35 36 37 38 39 40 41 45 50 54 57 59 59 60 62 65 72 72 71 71 64 60 55 51 54 52 53 61 58 57 60 59 60 57 53 54 54 53 55 56 56 54 52 49 45 41 38 37 37 38 38 40 41 44 47 51 54 53 52 53 54 53 53 52 53 56 57 60 63 65 68 69 69 72
26 24 22 24 22 20 18 17 17 17 17 18 19 19 19 20 21 22 29 37 37 34 34 35 35 36 37 37 39 43 46 49 52 55 62 67 70 70 72 78 79 77 76 71 70 66 61 62 58 57 64 61 59 61 59 59 58 55 55 54 55 57 57 54 49 45 41 39 38 38 37 36 35 34 35 37 40 43 47 49 50 51 54 55 54 54 53 54 55 54 57 62 63 64 66 69 72
26 25 24 24 22 20 18 17 18 18 18 18 18 18 17 16 17 17 22 31 33 31 32 34 35 36 37 37 39 44 47 48 48 53 61 61 62 73 80 81 79 76 77 78 79 75 71 69 63 62 66 63 61 61 60 58 57 57 56 55 58 58 54 50 45 42 40 40 41 40 39 37 35 34 34 35 36 39 43 48 51 53 54 54 53 53 53 54 55 53 56 60 61 61 64 67 68
27 26 26 23 21 20 17 17 19 20 20 19 19 19 17 15 14 14 17 26 30 30 31 34 35 35 36 38 40 44 46 46 47 52 57 52 52 64 67 63 61 58 61 70 77 80 78 73 68 66 65 64 62 59 59 57 54 54 57 58 57 53 51 49 45 43 42 42 42 42 41 40 39 39 38 37 37 39 44 49 53 54 53 52 51 51 52 53 53 52 54 58 59 59 61 64 66
28 28 27 24 22 20 17 17 19 21 22 22 21 21 19 16 14 14 17 24 29 29 30 33 34 35 37 38 40 43 45 46 48 52 53 52 57 61 55 49 49 49 50 53 61 72 78 73 70 67 64 65 64 59 57 57 53 50 53 56 53 51 52 51 48 45 44 42 42 43 42 41 42 42 42 41 41 43 46 48 51 51 49 49 48 49 50 50 49 50 52 55 57 57 58 61 63
29 28 28 26 23 21 19 19 21 22 24 25 24 24 21 17 16 16 19 22 25 27 27 29 32 37 40 40 40 42 44 47 48 50 50 51 58 62 57 51 49 52 54 51 51 58 68 72 70 66 64 65 64 61 58 57 56 52 50 50 51 53 54 51 49 47 44 42 41 42 41 41 41 41 41 42 43 44 44 46 48 48 47 46 45 48 49 47 48 49 50 51 52 54 55 56 59
29 29 28 27 23 23 22 21 23 25 25 26 25 25 23 19 18 17 17 18 20 25 27 27 31 38 43 41 40 42 45 46 47 48 48 51 55 57 54 52 51 53 55 55 52 50 57 67 69 66 64 63 62 62 60 56 56 56 51 48 50 53 53 51 49 46 45 45 44 43 42 41 40 40 39 39 40 40 40 41 44 46 45 45 44 46 47 46 46 48 49 48 48 50 51 52 55
30 30 28 26 24 24 23 21 25 26 27 29 27 28 26 21 20 19 18 19 19 26 29 30 35 39 41 41 41 45 48 50 49 47 49 53 54 52 50 51 52 52 51 53 53 50 51 57 62 66 66 64 63 62 61 59 58 57 54 51 51 52 52 51 47 45 47 49 47 44 42 41 40 39 38 39 39 37 36 36 37 39 42 43 44 44 45 44 44 45 47 47 47 48 48 50 52
29 29 26 26 24 24 24 25 28 27 29 32 30 31 29 22 22 22 21 22 24 29 32 35 39 41 41 42 43 47 53 54 51 51 55 58 53 47 48 51 51 51 51 52 55 56 54 53 56 63 66 68 67 63 62 62 61 58 55 52 50 49 49 46 42 42 47 49 48 47 45 43 40 38 37 39 39 38 38 36 34 34 35 38 40 42 44 44 43 44 46 47 48 48 49 50 51
28 28 27 25 25 26 29 31 32 31 33 36 33 32 29 22 22 26 25 28 31 32 35 38 42 43 43 44 47 50 53 55 55 57 60 59 55 52 53 54 51 50 52 55 60 60 56 53 54 60 66 70 70 66 64 64 63 60 55 51 49 46 44 41 39 41 46 48 49 49 46 43 40 38 36 36 36 36 37 37 36 35 33 33 34 37 41 44 45 45 46 47 48 49 51 50 51
29 29 29 28 27 28 30 32 33 34 35 37 37 35 30 25 26 29 29 33 38 37 38 41 44 45 45 46 51 52 51 54 57 59 59 58 61 62 61 58 53 53 55 58 63 61 56 55 57 63 68 71 72 68 65 68 67 61 55 51 49 46 43 40 40 45 50 52 53 51 45 41 41 41 39 37 33 32 35 35 34 36 35 33 31 31 34 40 44 46 46 47 48 49 52 52 50
30 30 30 29 28 29 31 32 33 35 34 36 41 38 32 32 34 32 31 35 40 41 41 43 44 44 45 48 52 52 51 55 57 56 56 55 57 59 58 55 54 55 56 58 62 61 59 61 66 70 72 73 73 68 66 71 70 62 55 51 48 47 47 43 44 51 55 55 54 49 43 42 42 41 41 39 35 33 34 33 32 34 36 34 32 31 31 34 39 43 45 45 45 45 48 51 50
31 32 31 30 30 31 31 33 31 32 35 36 41 40 33 35 39 36 35 36 40 44 44 44 46 46 46 49 51 53 54 55 57 59 58 57 58 58 56 54 56 58 57 59 61 61 61 65 69 71 69 70 72 68 67 72 71 63 57 54 50 51 53 49 50 56 56 55 53 47 42 40 38 38 37 37 37 36 35 35 36 36 35 34 33 32 32 32 33 38 42 43 44 44 44 46 47
31 33 32 30 34 34 34 38 34 33 38 37 39 41 36 36 41 41 39 38 43 49 48 47 48 48 49 50 51 54 56 56 59 61 60 62 63 60 57 56 58 60 60 61 59 59 64 69 71 70 68 70 72 69 69 71 70 65 61 58 55 57 57 53 53 55 56 56 52 44 39 36 35 37 38 38 39 39 38 38 39 39 37 35 34 32 30 30 32 36 42 45 44 44 43 43 43
30 35 35 33 39 38 36 39 34 35 42 39 40 44 39 39 44 46 45 43 47 52 52 51 50 50 50 50 51 54 56 58 61 61 62 64 61 57 58 58 60 61 61 61 57 56 62 69 72 70 70 74 75 72 71 71 70 67 65 63 62 61 58 54 53 53 54 55 49 42 38 36 37 41 42 41 41 43 42 40 38 38 38 37 35 33 30 31 34 39 44 47 46 45 44 44 43
32 38 38 37 40 38 40 46 40 39 42 39 42 46 41 45 49 49 50 49 49 50 52 54 53 52 50 50 53 56 56 59 62 62 61 60 59 59 60 58 59 60 57 54 54 56 61 68 72 71 73 76 76 75 73 72 70 66 65 66 66 65 61 59 58 55 56 53 47 43 39 39 42 44 44 43 44 45 44 43 40 37 37 37 35 33 31 32 36 41 45 46 46 45 44 44 43
33 37 37 37 42 41 47 55 45 40 41 39 44 43 42 51 55 52 54 54 52 50 52 56 56 55 53 52 56 60 61 64 65 62 60 60 61 63 61 59 60 59 54 52 56 61 64 67 71 73 74 74 74 75 74 72 68 64 63 66 69 68 64 64 62 59 57 53 47 43 42 45 47 46 45 46 47 48 47 46 44 39 34 33 33 32 31 31 33 38 41 41 40 39 40 41 41
35 37 35 35 41 41 46 51 43 41 43 43 46 44 46 58 59 53 54 56 56 54 55 58 58 59 57 57 61 65 66 67 65 63 62 63 64 63 62 63 64 61 57 56 60 64 65 66 69 73 74 71 69 71 73 71 69 64 63 67 71 69 65 65 65 61 56 52 47 45 46 50 49 46 48 48 46 47 48 47 46 42 35 30 30 30 28 27 28 31 33 33 32 33 35 37 39
39 38 33 31 36 37 41 46 45 47 48 48 54 57 59 64 59 53 54 56 57 56 57 58 60 61 60 61 64 67 69 68 66 65 67 67 67 66 65 66 67 65 61 60 62 63 65 68 71 71 70 67 65 68 72 72 70 66 64 67 70 69 67 69 70 64 58 55 51 49 52 52 50 49 51 50 46 44 46 48 47 42 35 30 28 27 25 24 25 26 27 28 29 31 33 36 38
43 38 33 33 35 35 40 45 47 49 49 54 64 68 69 68 62 57 56 56 57 59 59 59 60 63 63 64 66 67 70 71 67 66 67 70 73 72 68 66 68 67 65 64 64 64 66 70 70 68 67 65 65 68 69 69 69 66 65 67 67 66 67 71 72 66 61 61 58 56 56 54 52 54 54 51 47 43 43 47 48 40 33 30 29 27 24 23 23 23 25 27 29 30 31 35 39
41 40 38 38 36 38 43 50 54 52 48 55 67 72 72 70 66 64 61 58 58 60 63 62 63 66 67 67 68 69 70 70 68 67 69 74 77 73 69 68 67 67 69 69 67 66 66 67 67 67 67 67 67 67 64 64 65 64 65 66 64 65 68 71 71 64 62 63 60 59 61 57 55 56 56 53 49 43 40 44 46 39 33 32 30 26 23 23 23 23 24 27 29 30 32 36 39
34 39 42 41 42 45 44 46 53 55 52 58 66 71 72 69 67 69 68 65 61 62 69 71 68 70 73 72 70 71 71 70 72 73 72 76 78 73 72 72 69 67 69 71 72 71 68 68 70 71 71 70 67 66 64 63 62 62 65 66 66 70 71 71 69 63 62 63 60 61 62 59 57 58 57 55 50 42 39 42 42 36 32 33 31 25 22 24 25 24 24 27 29 31 32 35 37
32 34 38 41 47 49 45 44 48 51 58 66 65 67 70 68 66 69 69 67 64 65 71 74 71 72 76 78 78 79 77 74 75 75 76 79 79 76 75 75 72 69 69 72 76 77 74 73 74 75 73 70 66 66 67 66 63 62 64 64 68 74 73 69 67 63 63 63 61 63 63 60 59 59 60 58 48 40 39 40 35 30 31 34 32 26 22 24 27 26 26 28 30 31 32 32 33
35 34 38 42 46 46 44 45 45 45 57 67 64 63 65 62 61 65 68 67 65 66 67 69 72 74 74 75 81 87 85 80 77 76 79 83 82 79 75 74 76 76 73 75 79 80 78 76 77 78 77 73 71 71 71 70 67 65 64 63 66 73 72 68 65 64 65 65 63 64 64 61 59 59 61 58 47 40 39 36 27 25 31 35 31 25 22 25 27 27 28 29 28 30 30 30 29
42 41 42 45 48 48 48 49 47 47 54 59 59 63 66 63 61 64 67 67 67 69 68 65 70 75 74 74 78 83 85 84 82 79 81 86 87 85 78 74 77 78 77 80 82 81 80 79 79 80 79 77 76 76 74 72 70 70 70 68 67 70 72 71 68 68 69 67 63 63 63 60 57 56 57 53 46 42 37 31 25 25 31 33 30 26 24 25 27 26 27 28 28 28 27 26 26